Pacific Dawn — 2AGH7 — position and weather

sailwx.info

Track history (hours):
 
Tides and Currents Weather Stations Pressure Air Temp Water Temp Dewpoint Dewpoint Depression Visibility Wind Speed Wind Dir Waves Ship Positions

Pacific Dawn

Last reported at 2018-Jun-18 12:00 UTC. Time now 2018-Jun-20 00:07 UTC.
Position S 19°00' E 147°18'.

Length 245 m; draft 8.3 m.

Type: Passenger vessel. MMSI: 235059368.

Wind from 160 at 13 knots

Barometer 1017.4 mb
Air temperature 18.5 ° C
Visibility: greater than 10.8 NM
Dewpoint 12.2 ° C

Date/timePositionNaut miles runAvg speedWind from/ knotsBaromVisibWave heightAir tempDewpointWater temp
2018-Jun-18 12:00S 19°00' E 147°18'56711.0 160 / 131017.410.8 18.512.2
2018-Jun-16 08:36S 26°42' E 153°15'214.5
2018-Jun-16 08:27S 26°43' E 153°13'610.4
2018-Jun-16 07:54S 26°48' E 153°11'512.7
2018-Jun-16 07:30S 26°54' E 153°11'917.4
2018-Jun-16 07:00S 27°01' E 153°15'816.7
2018-Jun-16 06:30S 27°08' E 153°21'815.9
2018-Jun-16 06:00S 27°15' E 153°18'815.5
2018-Jun-16 05:30S 27°20' E 153°11'510.4
2018-Jun-16 05:00S 27°25' E 153°09'4 7.4
2018-Jun-16 04:30S 27°27' E 153°05'1 0.4
2018-Jun-16 01:21S 27°26' E 153°04'0 0.0
2018-Jun-16 00:57S 27°26' E 153°04'0 0.0
2018-Jun-16 00:27S 27°26' E 153°04'0 0.0
2018-Jun-15 23:51S 27°26' E 153°04'0 0.0
2018-Jun-15 23:22S 27°26' E 153°04'0 0.0
2018-Jun-15 22:12S 27°26' E 153°04'0 0.0
2018-Jun-15 21:54S 27°26' E 153°04'0 0.0
2018-Jun-15 21:28S 27°26' E 153°04'0 0.0
2018-Jun-15 20:57S 27°26' E 153°04'0 0.0
2018-Jun-15 20:27S 27°26' E 153°04'0 0.0
2018-Jun-15 19:38S 27°26' E 153°04'0 0.6
2018-Jun-15 19:30S 27°27' E 153°04'3 5.4
2018-Jun-15 19:00S 27°26' E 153°07'3 6.9
2018-Jun-15 18:31S 27°23' E 153°09'5 9.2
2018-Jun-15 18:00S 27°19' E 153°12'713.9
2018-Jun-15 17:30S 27°15' E 153°18'714.5
2018-Jun-15 17:00S 27°08' E 153°21'714.5
2018-Jun-15 16:30S 27°03' E 153°16'815.5
2018-Jun-15 16:00S 26°56' E 153°12'714.2
2018-Jun-15 15:30S 26°49' E 153°10'714.3
2018-Jun-15 15:00S 26°42' E 153°11'611.1
2018-Jun-15 14:30S 26°38' E 153°15'3915.4
2018-Jun-15 12:00S 26°00' E 153°24'   260 / 101017.110.8 21.517.5
2018-Jun-13 00:00S 23°18' E 152°30'10818.1 340 / 31012.410.8 22.515.9
2018-Jun-12 18:00S 24°48' E 153°36'11316.7 320 / 121010.310.8 21.513.824.0
2018-Jun-12 11:14S 26°39' E 153°14'1011.9
2018-Jun-12 10:24S 26°49' E 153°10'512.9
2018-Jun-12 09:59S 26°54' E 153°11'816.6
2018-Jun-12 09:29S 27°02' E 153°15'814.7
2018-Jun-12 08:56S 27°08' E 153°21'715.6
2018-Jun-12 08:30S 27°14' E 153°20'816.0
2018-Jun-12 07:59S 27°19' E 153°12'611.0
2018-Jun-12 07:27S 27°24' E 153°09'4 7.5
2018-Jun-12 06:59S 27°27' E 153°06'2 0.2
2018-Jun-11 21:32S 27°26' E 153°04'0 0.0
2018-Jun-11 21:23S 27°26' E 153°04'0 0.0
2018-Jun-11 20:50S 27°26' E 153°04'0 0.0
2018-Jun-11 20:29S 27°26' E 153°04'0 0.3
2018-Jun-11 19:20S 27°27' E 153°04'2 6.6
2018-Jun-11 19:00S 27°26' E 153°07'4 7.3
2018-Jun-11 18:30S 27°23' E 153°09'510.6
2018-Jun-11 18:01S 27°19' E 153°12'816.0
2018-Jun-11 17:31S 27°14' E 153°20'816.1
2018-Jun-11 17:00S 27°06' E 153°19'816.0
2018-Jun-11 16:30S 26°60' E 153°14'816.4
2018-Jun-11 16:00S 26°52' E 153°10'1013.2
2018-Jun-11 15:15S 26°43' E 153°11'2 8.0
2018-Jun-11 14:59S 26°42' E 153°13'79 6.1
2018-Jun-11 02:00S 25°48' E 154°18'24 0.8 210 / 171018.110.8 24.015.824.0
2018-Jun-09 21:00S 26°06' E 154°00'6 2.0 090 / 101018.927.0 21.015.124.1
2018-Jun-09 18:00S 26°12' E 154°00'59 7.2 270 / 11014.910.8 20.014.924.0
2018-Jun-09 09:51S 26°49' E 153°09'615.6
2018-Jun-09 09:28S 26°55' E 153°11'916.9
2018-Jun-09 08:55S 27°03' E 153°17'715.7
2018-Jun-09 08:26S 27°09' E 153°21'715.7
2018-Jun-09 08:01S 27°16' E 153°18'815.4
2018-Jun-09 07:30S 27°21' E 153°11'5 8.6
2018-Jun-09 06:56S 27°25' E 153°08'3 6.5
2018-Jun-09 06:25S 27°27' E 153°05'1 0.5
2018-Jun-09 04:20S 27°26' E 153°04'0 0.0
2018-Jun-09 01:20S 27°26' E 153°04'0 0.0
2018-Jun-09 00:08S 27°26' E 153°04'0 0.0
2018-Jun-08 23:50S 27°26' E 153°04'0 0.0
2018-Jun-08 23:26S 27°26' E 153°04'0 0.0
2018-Jun-08 22:56S 27°26' E 153°04'0 0.1
2018-Jun-08 19:21S 27°27' E 153°04'3 6.9
2018-Jun-08 18:56S 27°26' E 153°07'4 7.0
2018-Jun-08 18:24S 27°23' E 153°10'612.8
2018-Jun-08 17:57S 27°18' E 153°13'1115.2
2018-Jun-08 17:15S 27°10' E 153°21'416.6
2018-Jun-08 17:00S 27°06' E 153°19'815.4
2018-Jun-08 16:30S 26°60' E 153°14'1016.8
2018-Jun-08 15:54S 26°50' E 153°09'  
Track history (hours):
 
Tides and Currents Weather Stations Pressure Air Temp Water Temp Dewpoint Dewpoint Depression Visibility Wind Speed Wind Dir Waves Ship Positions

Pacific Dawn

Last reported at 2018-Jun-18 12:00 UTC. Time now 2018-Jun-20 00:07 UTC.
Position S 19°00' E 147°18'.

Length 245 m; draft 8.3 m.

Type: Passenger vessel. MMSI: 235059368.

Wind from 160 at 13 knots

Barometer 1017.4 mb
Air temperature 18.5 ° C
Visibility: greater than 10.8 NM
Dewpoint 12.2 ° C

Date/timePositionNaut miles runAvg speedWind from/ knotsBaromVisibWave heightAir tempDewpointWater temp
2018-Jun-18 12:00S 19°00' E 147°18'56711.0 160 / 131017.410.8 18.512.2
2018-Jun-16 08:36S 26°42' E 153°15'214.5
2018-Jun-16 08:27S 26°43' E 153°13'610.4
2018-Jun-16 07:54S 26°48' E 153°11'512.7
2018-Jun-16 07:30S 26°54' E 153°11'917.4
2018-Jun-16 07:00S 27°01' E 153°15'816.7
2018-Jun-16 06:30S 27°08' E 153°21'815.9
2018-Jun-16 06:00S 27°15' E 153°18'815.5
2018-Jun-16 05:30S 27°20' E 153°11'510.4
2018-Jun-16 05:00S 27°25' E 153°09'4 7.4
2018-Jun-16 04:30S 27°27' E 153°05'1 0.4
2018-Jun-16 01:21S 27°26' E 153°04'0 0.0
2018-Jun-16 00:57S 27°26' E 153°04'0 0.0
2018-Jun-16 00:27S 27°26' E 153°04'0 0.0
2018-Jun-15 23:51S 27°26' E 153°04'0 0.0
2018-Jun-15 23:22S 27°26' E 153°04'0 0.0
2018-Jun-15 22:12S 27°26' E 153°04'0 0.0
2018-Jun-15 21:54S 27°26' E 153°04'0 0.0
2018-Jun-15 21:28S 27°26' E 153°04'0 0.0
2018-Jun-15 20:57S 27°26' E 153°04'0 0.0
2018-Jun-15 20:27S 27°26' E 153°04'0 0.0
2018-Jun-15 19:38S 27°26' E 153°04'0 0.6
2018-Jun-15 19:30S 27°27' E 153°04'3 5.4
2018-Jun-15 19:00S 27°26' E 153°07'3 6.9
2018-Jun-15 18:31S 27°23' E 153°09'5 9.2
2018-Jun-15 18:00S 27°19' E 153°12'713.9
2018-Jun-15 17:30S 27°15' E 153°18'714.5
2018-Jun-15 17:00S 27°08' E 153°21'714.5
2018-Jun-15 16:30S 27°03' E 153°16'815.5
2018-Jun-15 16:00S 26°56' E 153°12'714.2
2018-Jun-15 15:30S 26°49' E 153°10'714.3
2018-Jun-15 15:00S 26°42' E 153°11'611.1
2018-Jun-15 14:30S 26°38' E 153°15'3915.4
2018-Jun-15 12:00S 26°00' E 153°24'   260 / 101017.110.8 21.517.5
2018-Jun-13 00:00S 23°18' E 152°30'10818.1 340 / 31012.410.8 22.515.9
2018-Jun-12 18:00S 24°48' E 153°36'11316.7 320 / 121010.310.8 21.513.824.0
2018-Jun-12 11:14S 26°39' E 153°14'1011.9
2018-Jun-12 10:24S 26°49' E 153°10'512.9
2018-Jun-12 09:59S 26°54' E 153°11'816.6
2018-Jun-12 09:29S 27°02' E 153°15'814.7
2018-Jun-12 08:56S 27°08' E 153°21'715.6
2018-Jun-12 08:30S 27°14' E 153°20'816.0
2018-Jun-12 07:59S 27°19' E 153°12'611.0
2018-Jun-12 07:27S 27°24' E 153°09'4 7.5
2018-Jun-12 06:59S 27°27' E 153°06'2 0.2
2018-Jun-11 21:32S 27°26' E 153°04'0 0.0
2018-Jun-11 21:23S 27°26' E 153°04'0 0.0
2018-Jun-11 20:50S 27°26' E 153°04'0 0.0
2018-Jun-11 20:29S 27°26' E 153°04'0 0.3
2018-Jun-11 19:20S 27°27' E 153°04'2 6.6
2018-Jun-11 19:00S 27°26' E 153°07'4 7.3
2018-Jun-11 18:30S 27°23' E 153°09'510.6
2018-Jun-11 18:01S 27°19' E 153°12'816.0
2018-Jun-11 17:31S 27°14' E 153°20'816.1
2018-Jun-11 17:00S 27°06' E 153°19'816.0
2018-Jun-11 16:30S 26°60' E 153°14'816.4
2018-Jun-11 16:00S 26°52' E 153°10'1013.2
2018-Jun-11 15:15S 26°43' E 153°11'2 8.0
2018-Jun-11 14:59S 26°42' E 153°13'79 6.1
2018-Jun-11 02:00S 25°48' E 154°18'24 0.8 210 / 171018.110.8 24.015.824.0
2018-Jun-09 21:00S 26°06' E 154°00'6 2.0 090 / 101018.927.0 21.015.124.1
2018-Jun-09 18:00S 26°12' E 154°00'59 7.2 270 / 11014.910.8 20.014.924.0
2018-Jun-09 09:51S 26°49' E 153°09'615.6
2018-Jun-09 09:28S 26°55' E 153°11'916.9
2018-Jun-09 08:55S 27°03' E 153°17'715.7
2018-Jun-09 08:26S 27°09' E 153°21'715.7
2018-Jun-09 08:01S 27°16' E 153°18'815.4
2018-Jun-09 07:30S 27°21' E 153°11'5 8.6
2018-Jun-09 06:56S 27°25' E 153°08'3 6.5
2018-Jun-09 06:25S 27°27' E 153°05'1 0.5
2018-Jun-09 04:20S 27°26' E 153°04'0 0.0
2018-Jun-09 01:20S 27°26' E 153°04'0 0.0
2018-Jun-09 00:08S 27°26' E 153°04'0 0.0
2018-Jun-08 23:50S 27°26' E 153°04'0 0.0
2018-Jun-08 23:26S 27°26' E 153°04'0 0.0
2018-Jun-08 22:56S 27°26' E 153°04'0 0.1
2018-Jun-08 19:21S 27°27' E 153°04'3 6.9
2018-Jun-08 18:56S 27°26' E 153°07'4 7.0
2018-Jun-08 18:24S 27°23' E 153°10'612.8
2018-Jun-08 17:57S 27°18' E 153°13'1115.2
2018-Jun-08 17:15S 27°10' E 153°21'416.6
2018-Jun-08 17:00S 27°06' E 153°19'815.4
2018-Jun-08 16:30S 26°60' E 153°14'1016.8
2018-Jun-08 15:54S 26°50' E 153°09'  

Dump ship's entire track history